#timestamp,LO_Frequency,Hit,Temp,Hum 
1479996015.2,286046971.0,N,0.0,0.0
1479996035.1,286046971.8,N,0.0,0.0
1479996036.0,286046971.8,N,0.0,0.0
1479996055.8,286046969.4,N,0.0,0.0
1479996075.6,286046970.0,N,0.0,0.0
1479996095.5,286046970.5,N,0.0,0.0
1479996115.3,286046970.3,N,0.0,0.0
1479996135.1,286046970.7,N,0.0,0.0
1479996155.9,286046970.3,N,0.0,0.0
1479996175.7,286046972.4,N,0.0,0.0
1479996195.6,286046972.0,N,0.0,0.0
1479996215.4,286046971.9,N,0.0,0.0
1479996235.2,286046972.2,N,0.0,0.0
1479996255.1,286046969.9,N,0.0,0.0
1479996256.0,286046969.9,N,0.0,0.0
1479996275.8,286046969.6,N,0.0,0.0
1479996295.7,286046970.3,N,0.0,0.0
1479996315.5,286046970.1,N,0.0,0.0
1479996335.3,286046972.4,N,0.0,0.0
1479996355.2,286046972.0,N,0.0,0.0
1479996375.0,286046970.5,N,0.0,0.0
1479996375.9,286046970.5,N,0.0,0.0
1479996395.7,286046970.7,N,0.0,0.0
1479996415.6,286046970.1,N,0.0,0.0
1479996435.4,286046970.4,N,0.0,0.0
1479996455.3,286046968.0,N,0.0,0.0
1479996475.1,286046969.1,N,0.0,0.0
1479996495.8,286046966.2,N,0.0,0.0
1479996515.7,286046966.6,N,0.0,0.0
1479996535.5,286046967.0,N,0.0,0.0
1479996555.4,286046966.5,N,0.0,0.0
1479996575.2,286046966.2,N,0.0,0.0
1479996595.0,286046968.7,N,0.0,0.0
1479996595.9,286046968.7,N,0.0,0.0
1479996615.8,286046967.7,N,0.0,0.0
1479996635.6,286046967.8,N,0.0,0.0
1479996655.5,286046968.5,N,0.0,0.0
1479996675.3,286046966.3,N,0.0,0.0
1479996695.1,286046966.7,N,0.0,0.0
1479996715.9,286046966.2,N,0.0,0.0
1479996735.7,286046968.7,N,0.0,0.0
1479996755.5,286046967.7,N,0.0,0.0
1479996775.4,286046969.2,N,0.0,0.0
1479996795.2,286046966.2,N,0.0,0.0
1479996815.1,286046966.2,N,0.0,0.0
1479996816.0,286046966.2,N,0.0,0.0
1479996835.8,286046966.2,N,0.0,0.0
1479996855.6,286046968.8,N,0.0,0.0
1479996875.5,286046968.7,N,0.0,0.0
1479996895.3,286046968.9,N,0.0,0.0
1479996915.1,286046968.6,N,0.0,0.0
1479996935.9,286046968.8,N,0.0,0.0
1479996955.7,286046969.0,N,0.0,0.0
1479996975.6,286046968.7,N,0.0,0.0
1479996995.4,286046968.7,N,0.0,0.0
1479997015.2,286046969.0,N,0.0,0.0
1479997035.1,286046966.1,N,0.0,0.0
1479997036.0,286046966.1,N,0.0,0.0
1479997055.8,286046966.8,N,0.0,0.0
1479997075.7,286046966.3,N,0.0,0.0
1479997095.5,286046969.2,N,0.0,0.0
1479997115.3,286046969.2,N,0.0,0.0
1479997135.2,286046966.3,N,0.0,0.0
1479997155.0,286046969.2,N,0.0,0.0
1479997155.9,286046969.2,N,0.0,0.0
1479997175.7,286046968.7,N,0.0,0.0
1479997195.6,286046968.6,N,0.0,0.0
1479997215.4,286046968.9,N,0.0,0.0
1479997235.3,286046968.7,N,0.0,0.0
1479997255.1,286046968.6,N,0.0,0.0
1479997275.8,286046968.3,N,0.0,0.0
1479997295.7,286046968.3,N,0.0,0.0
1479997315.5,286046968.3,N,0.0,0.0
1479997335.4,286046968.2,N,0.0,0.0
1479997355.2,286046970.4,N,0.0,0.0
1479997375.0,286046970.1,N,0.0,0.0
1479997375.9,286046970.1,N,0.0,0.0
1479997395.8,286046969.5,N,0.0,0.0
1479997415.6,286046970.2,N,0.0,0.0
1479997435.4,286046970.1,N,0.0,0.0
1479997455.3,286046970.5,N,0.0,0.0
1479997475.1,286046970.2,N,0.0,0.0
1479997495.9,286046969.5,N,0.0,0.0
1479997515.7,286046969.4,N,0.0,0.0
1479997535.5,286046972.3,N,0.0,0.0
1479997555.4,286046969.3,N,0.0,0.0
1479997575.2,286046969.7,N,0.0,0.0
1479997595.1,286046969.3,N,0.0,0.0
1479997596.0,286046969.3,N,0.0,0.0
1479997615.8,286046969.5,N,0.0,0.0
1479997635.6,286046969.4,N,0.0,0.0
1479997655.5,286046972.3,N,0.0,0.0
1479997675.3,286046972.3,N,0.0,0.0
1479997695.1,286046972.1,N,0.0,0.0
1479997715.9,286046971.3,N,0.0,0.0
1479997735.7,286046973.6,N,0.0,0.0
1479997755.6,286046973.2,N,0.0,0.0
1479997775.4,286046975.6,N,0.0,0.0
1479997795.2,286046975.2,N,0.0,0.0
1479997815.1,286046972.9,N,0.0,0.0
1479997816.0,286046972.9,N,0.0,0.0
1479997835.8,286046972.7,N,0.0,0.0
1479997855.7,286046972.5,N,0.0,0.0
1479997875.5,286046975.1,N,0.0,0.0
1479997895.3,286046975.3,N,0.0,0.0
1479997915.2,286046974.9,N,0.0,0.0
1479997935.0,286046975.0,N,0.0,0.0
1479997935.9,286046975.0,N,0.0,0.0
1479997955.7,286046974.8,N,0.0,0.0
1479997975.6,286046974.1,N,0.0,0.0
1479997995.4,286046974.2,N,0.0,0.0
1479998015.3,286046974.1,N,0.0,0.0
1479998035.1,286046974.1,N,0.0,0.0
1479998036.0,286046974.1,N,0.0,0.0
1479998055.8,286046977.1,N,0.0,0.0
1479998075.7,286046977.0,N,0.0,0.0
1479998095.5,286046976.7,N,0.0,0.0
1479998115.4,286046976.8,N,0.0,0.0
1479998135.2,286046976.4,N,0.0,0.0
1479998155.0,286046976.4,N,0.0,0.0
1479998155.9,286046976.4,N,0.0,0.0
1479998175.8,286046975.8,N,0.0,0.0
1479998195.6,286046976.0,N,0.0,0.0
1479998215.4,286046976.1,N,0.0,0.0
1479998235.3,286046978.8,N,0.0,0.0
1479998255.1,286046978.3,N,0.0,0.0
1479998275.9,286046978.6,N,0.0,0.0
1479998295.7,286046978.7,N,0.0,0.0
1479998315.5,286046978.0,N,0.0,0.0
1479998335.4,286046978.1,N,0.0,0.0
1479998355.2,286046978.2,N,0.0,0.0
1479998375.1,286046977.6,N,0.0,0.0
1479998376.0,286046977.6,N,0.0,0.0
1479998395.8,286046977.8,N,0.0,0.0
1479998415.6,286046977.4,N,0.0,0.0
1479998435.5,286046980.3,N,0.0,0.0
1479998455.3,286046979.9,N,0.0,0.0
1479998475.1,286046979.5,N,0.0,0.0
1479998495.9,286046979.4,N,0.0,0.0
1479998515.7,286046979.7,N,0.0,0.0
1479998535.6,286046980.1,N,0.0,0.0
1479998555.4,286046979.9,N,0.0,0.0
1479998575.2,286046979.9,N,0.0,0.0
1479998595.1,286046979.7,N,0.0,0.0
1479998596.0,286046979.7,N,0.0,0.0
1479998615.8,286046980.1,N,0.0,0.0
1479998635.7,286046980.2,N,0.0,0.0
1479998655.5,286046979.9,N,0.0,0.0
1479998675.3,286046980.4,N,0.0,0.0
1479998695.2,286046977.8,N,0.0,0.0
1479998715.9,286046977.4,N,0.0,0.0
1479998735.7,286046980.3,N,0.0,0.0
1479998755.6,286046979.4,N,0.0,0.0
1479998775.4,286046979.8,N,0.0,0.0
1479998795.3,286046980.0,N,0.0,0.0
1479998815.1,286046980.3,N,0.0,0.0
1479998816.0,286046980.3,N,0.0,0.0
1479998835.8,286046979.7,N,0.0,0.0
1479998855.7,286046981.2,N,0.0,0.0
1479998875.5,286046981.8,N,0.0,0.0
1479998895.4,286046981.0,N,0.0,0.0
1479998915.2,286046980.5,N,0.0,0.0
1479998935.0,286046980.8,N,0.0,0.0
1479998935.9,286046980.8,N,0.0,0.0
1479998955.8,286046980.5,N,0.0,0.0
1479998975.6,286046981.2,N,0.0,0.0
1479998995.4,286046980.5,N,0.0,0.0
1479999015.3,286046982.9,N,0.0,0.0
1479999035.1,286046982.6,N,0.0,0.0
1479999055.9,286046983.6,N,0.0,0.0
1479999075.7,286046981.3,N,0.0,0.0
1479999095.5,286046982.0,N,0.0,0.0
1479999115.4,286046983.6,N,0.0,0.0
1479999135.2,286046983.3,N,0.0,0.0
1479999155.0,286046983.2,N,0.0,0.0
1479999156.0,286046983.2,N,0.0,0.0
1479999175.8,286046983.3,N,0.0,0.0
1479999195.6,286046983.3,N,0.0,0.0
1479999215.5,286046982.4,N,0.0,0.0
1479999235.3,286046984.6,N,0.0,0.0
1479999255.1,286046984.8,N,0.0,0.0
1479999275.9,286046984.4,N,0.0,0.0
1479999295.7,286046984.4,N,0.0,0.0
1479999315.6,286046984.7,N,0.0,0.0
1479999335.4,286046984.1,N,0.0,0.0
1479999355.2,286046984.9,N,0.0,0.0
1479999375.1,286046984.0,N,0.0,0.0
1479999376.0,286046984.0,N,0.0,0.0
1479999395.8,286046986.6,N,0.0,0.0
1479999415.7,286046986.0,N,0.0,0.0
1479999435.5,286046986.1,N,0.0,0.0
1479999455.3,286046986.6,N,0.0,0.0
1479999475.2,286046986.4,N,0.0,0.0
1479999495.0,286046983.9,N,0.0,0.0
1479999495.9,286046983.9,N,0.0,0.0
1479999515.8,286046983.8,N,0.0,0.0
1479999535.6,286046984.1,N,0.0,0.0
1479999555.4,286046984.5,N,0.0,0.0
1479999575.3,286046984.3,N,0.0,0.0
1479999595.1,286046983.9,N,0.0,0.0
